Location: Kapuskasing
(49.3803°N, 82.4001°W)
Time: 10:45:36
(UTC-04:00)

RS-44 - Pass Details

Date: 21 March 2026
Orbit: 1175 x 1510 km, 82.5° (Epoch: 11 April)

Event Time Altitude Azimuth Distance (km) Brightness Sun altitude
Rises 01:28:23 0° 352° (N) 4,429 ? -40.3°
Reaches altitude 10° 01:31:50 10° 5° (N) 3,503 ? -40.4°
Maximum altitude 01:38:39 26° 59° (ENE) 2,552 ? -40.4°
Enters shadow 01:41:05 23° 83° (E) 2,720 ? -40.4°
